OE9FWV Weather Reports


time (UTC)temp
C
wind
direction
speed
KPH
gust
KPH
rain 1hr
cm
rain 24hr
cm
rain mn
cm
humidity
%
barometer
mb
20260502195903 17 327 0.0 1.6 0.00 0.00 0.00 49 1016.0
20260502194902 17 322 0.0 0.0 0.00 0.00 0.00 51 1016.1
20260502193902 18 322 0.0 3.2 0.00 0.00 0.00 51 1016.1
20260502192856 18 322 0.0 0.0 0.00 0.00 0.00 50 1016.0
20260502191850 19 322 0.0 0.0 0.00 0.00 0.00 49 1016.0
20260502190846 20 322 0.0 0.0 0.00 0.00 0.00 46 1015.9
20260502185846 20 322 0.0 0.0 0.00 0.00 0.00 46 1015.8
20260502184840 20 322 0.0 0.0 0.00 0.00 0.00 44 1015.7
20260502183831 21 322 0.0 0.0 0.00 0.00 0.00 43 1015.6
20260502181823 22 322 0.0 0.0 0.00 0.00 0.00 38 1015.5
20260502180819 22 322 0.0 0.0 0.00 0.00 0.00 35 1015.4
20260502163752 24 327 12.9 12.9 0.00 0.00 0.00 33 1015.7
20260502162752 24 345 4.8 16.1 0.00 0.00 0.00 32 1015.9
20260502161748 25 341 8.0 11.3 0.00 0.00 0.00 31 1016.0
20260502151724 25 2 8.0 17.7 0.00 0.00 0.00 33 1016.6
20260502150716 25 356 14.5 14.5 0.00 0.00 0.00 34 1016.7
20260502130617 23 333 6.4 19.3 0.00 0.00 0.00 38 1018.2
20260502123602 24 346 12.9 14.5 0.00 0.00 0.00 41 1018.6
20260502122602 25 18 11.3 19.3 0.00 0.00 0.00 40 1018.7
20260502115548 25 329 14.5 17.7 0.00 0.00 0.00 44 1019.3
20260502114547 25 328 16.1 16.1 0.00 0.00 0.00 42 1019.5
20260502113541 25 337 6.4 12.9 0.00 0.00 0.00 43 1019.6
20260502112533 25 338 8.0 14.5 0.00 0.00 0.00 42 1019.8
20260502111533 25 315 12.9 14.5 0.00 0.00 0.00 42 1020.1
20260502110531 25 303 12.9 12.9 0.00 0.00 0.00 41 1020.2
20260502105528 25 325 8.0 8.0 0.00 0.00 0.00 44 1020.3
20260502104518 24 327 6.4 8.0 0.00 0.00 0.00 45 1020.3
20260502101507 22 1 6.4 8.0 0.00 0.00 0.00 47 1020.9
20260502091443 22 339 3.2 6.4 0.00 0.00 0.00 48 1021.5
20260502090443 21 342 6.4 8.0 0.00 0.00 0.00 51 1021.7
20260502071406 16 241 0.0 0.0 0.00 0.00 0.00 58 1022.4
20260502062343 13 241 0.0 0.0 0.00 0.00 0.00 69 1022.9
20260502061339 12 241 0.0 0.0 0.00 0.00 0.00 70 1022.8
20260502060337 12 241 0.0 0.0 0.00 0.00 0.00 72 1022.9
20260502055335 11 241 0.0 0.0 0.00 0.00 0.00 74 1022.9
20260502054332 11 241 0.0 0.0 0.00 0.00 0.00 75 1023.0
20260502045316 9 241 0.0 0.0 0.00 0.00 0.00 77 1022.6
20260502044315 9 241 0.0 0.0 0.00 0.00 0.00 77 1022.7
20260502043310 10 241 0.0 0.0 0.00 0.00 0.00 76 1022.7
20260502042306 10 241 0.0 0.0 0.00 0.00 0.00 76 1022.6
20260502040302 10 241 0.0 0.0 0.00 0.00 0.00 76 1022.7
20260502035251 10 241 0.0 0.0 0.00 0.00 0.00 75 1022.5
20260502034247 10 241 0.0 1.6 0.00 0.00 0.00 75 1022.5
20260502033243 10 241 0.0 0.0 0.00 0.00 0.00 75 1022.5
20260502030238 10 241 0.0 0.0 0.00 0.00 0.00 73 1022.5
20260502025228 10 241 0.0 0.0 0.00 0.00 0.00 73 1022.6
20260502024218 11 241 0.0 0.0 0.00 0.00 0.00 72 1022.6
20260502023214 11 241 0.0 0.0 0.00 0.00 0.00 72 1022.7
20260502022214 11 241 0.0 0.0 0.00 0.00 0.00 72 1022.6
20260502021211 11 241 3.2 4.8 0.00 0.00 0.00 71 1022.6
20260502020200 11 243 1.6 3.2 0.00 0.00 0.00 70 1022.6
20260502015156 11 244 1.6 6.4 0.00 0.00 0.00 70 1022.6
20260502014156 11 246 6.4 6.4 0.00 0.00 0.00 68 1022.6
20260502013151 12 250 0.0 0.0 0.00 0.00 0.00 67 1022.6
20260502012143 12 251 3.2 4.8 0.00 0.00 0.00 67 1022.8
20260502011135 12 254 0.0 0.0 0.00 0.00 0.00 67 1022.8
20260502010135 12 254 3.2 3.2 0.00 0.00 0.00 66 1022.7
20260502004126 12 256 3.2 4.8 0.00 0.00 0.00 65 1022.9
20260502003119 13 256 0.0 0.0 0.00 0.00 0.00 64 1022.9
20260502001108 13 257 6.4 11.3 0.00 0.00 0.00 63 1022.8
20260501234056 13 244 3.2 3.2 0.00 0.00 0.00 61 1023.0
20260501233051 13 249 0.0 1.6 0.00 0.00 0.00 61 1023.0
20260501232045 13 248 9.7 9.7 0.00 0.00 0.00 60 1023.0
20260501231044 13 175 0.0 4.8 0.00 0.00 0.00 60 1023.0
20260501230043 15 175 0.0 0.0 0.00 0.00 0.00 58 1023.0
20260501225036 15 175 3.2 6.4 0.00 0.00 0.00 56 1023.0
20260501224029 16 175 1.6 1.6 0.00 0.00 0.00 54 1023.0
20260501223030 16 158 6.4 6.4 0.00 0.00 0.00 52 1023.1
20260501222030 16 144 12.9 19.3 0.00 0.00 0.00 52 1023.1
20260501221023 16 196 8.0 11.3 0.00 0.00 0.00 53 1023.2
20260501220020 16 129 8.0 12.9 0.00 0.00 0.00 54 1023.1
20260501213004 16 147 8.0 9.7 0.00 0.00 0.00 53 1023.0
20260501211959 16 152 3.2 11.3 0.00 0.00 0.00 53 1023.0
20260501210953 17 124 6.4 6.4 0.00 0.00 0.00 53 1022.8
20260501205952 17 150 12.9 20.9 0.00 0.00 0.00 52 1022.7
20260501204949 17 163 17.7 17.7 0.00 0.00 0.00 52 1022.7
20260501203944 17 141 17.7 17.7 0.00 0.00 0.00 52 1022.6
20260501202943 16 112 11.3 14.5 0.00 0.00 0.00 53 1022.6